Overview Statistics Trail Chart Weather Telemetry Raw packets
 

This is the latest recevied weather packets stored in our database for station/object N1YZ. If no packets are shown the sender has not sent any weather packets the latest 10 day(s).

<< 75 76 77 78 79 80 81 >>
Time Temp. Humidity Pressure Rain* Wind** Luminosity Snow
1788110759 30° C 76% 1039.8 hPa 0 mm - 495 W/m² -
1788110455 29.44° C 73% 1039.8 hPa 0 mm - 731 W/m² -
1788110150 29.44° C 73% 1039.8 hPa 0 mm - 98 W/m² -
1788109844 30° C 73% 1039.9 hPa 0 mm - 149 W/m² -
1788109539 30° C 74% 1039.8 hPa 0 mm - 101 W/m² -
1788109238 29.44° C 74% 1039.9 hPa 0 mm - 678 W/m² -
1788108933 30° C 77% 1040.1 hPa 0 mm - 684 W/m² -
1788108629 30° C 76% 1040 hPa 0 mm - 539 W/m² -
1788108325 29.44° C 75% 1040.2 hPa 0 mm - 456 W/m² -
1788108021 29.44° C 75% 1040 hPa 0 mm - 188 W/m² -
1788107718 29.44° C 77% 1040.3 hPa 0 mm - 668 W/m² -
1788107416 28.89° C 78% 1040.5 hPa 0 mm - 446 W/m² -
1788107112 28.89° C 78% 1040.4 hPa 0 mm - 100 W/m² -
1788106807 28.89° C 81% 1040.4 hPa 0 mm - 115 W/m² -
1788106501 28.89° C 80% 1040.4 hPa 0 mm - 59 W/m² -
1788106195 28.89° C 80% 1040.6 hPa 0 mm - 54 W/m² -
1788105887 28.89° C 78% 1040.6 hPa 0 mm - 52 W/m² -
1788105581 28.89° C 80% 1040.5 hPa 0 mm - 109 W/m² -
1788105278 28.33° C 82% 1040.7 hPa 0 mm - 79 W/m² -
1788104973 27.78° C 83% 1040.9 hPa 0 mm - 133 W/m² -
1788104669 27.78° C 83% 1040.7 hPa 0 mm - 81 W/m² -
1788104365 27.78° C 85% 1040.8 hPa 0 mm - 126 W/m² -
1788104060 27.78° C 85% 1040.5 hPa 0 mm - 233 W/m² -
1788103759 28.33° C 84% 1040.6 hPa 0 mm - 95 W/m² -
1788103454 27.78° C 84% 1040.5 hPa 0 mm - 145 W/m² -

* Rain latest hour (hover to see other rain measurements)
** Current wind speed in m/s (hover to see current wind gust speed)